Regional Weather Roundup
Issued by NWS Wakefield, VA

Home | Current Version | Previous Version | Text Only | Print | Product List | Glossary Off
Versions: 1 2 3 4 5 6 7 8 9 10 11 12 13 14 15 16 17 18 19 20 21 22 23 24 25 26 27 28

000
ASUS41 KAKQ 200114
RWRAKQ

REGIONAL WEATHER ROUNDUP
NATIONAL WEATHER SERVICE WAKEFIELD VA
900 PM EDT THU OCT 19 2017

Note: "fair" indicates few or no clouds below 12,000 feet with no
significant weather and/or obstructions to visibility. * = Denotes
station may not report precipitation (e.g., rain,snow,etc.),
thunder or fog.

VAZ042-051-052>054-056-200200-
NORTHERN VIRGINIA

CITY           SKY/WX    TMP DP  RH WIND       PRES   REMARKS
WASH NATIONAL  CLEAR     63  52  67 S5        30.16R
DULLES         PTCLDY    52  48  86 CALM      30.15S
FORT BELVOIR   CLEAR     52  50  94 CALM      30.16R
QUANTICO       CLEAR     57  55  93 NW6       30.17R
FREDERICKSBRG* CLEAR     55  51  87 CALM      30.16S
STAFFORD*      CLEAR     49  49 100 CALM      30.20S
WARRENTON      CLEAR     49  43  79 CALM      30.15F
CULPEPER*      CLEAR     52  45  76 CALM      30.17S
MANASSAS*      CLEAR     51  50  96 CALM      30.16S
LEESBURG*      CLEAR     55  52  88 SW3       30.16S
WINCHESTER     CLEAR     54  45  71 W3        30.16S
FRONT ROYAL*   CLEAR     55  45  67 CALM      30.16R
LURAY*         CLEAR     54  45  71 CALM      30.17S
$$

VAZ048-049-060>072-079>083-200200-
CENTRAL AND SOUTH CENTRAL VIRGINIA

CITY           SKY/WX    TMP DP  RH WIND       PRES   REMARKS
RICHMOND       CLEAR     54  48  80 CALM      30.18S
CHESTERFIELD*  NOT AVBL
PETERSBURG*    LGT RAIN N/A N/A N/A CALM      30.19S
HANOVER        CLEAR     52  50  93 CALM      30.19S
TAPPAHANNOCK*  CLEAR    N/A N/A N/A CALM      30.18S
QUINTON*       FAIR      53  53 100 MISG      30.18S
CHARLOTTSVILLE CLEAR     58  47  66 CALM      30.17S
GORDONSVILLE*  CLEAR     51  48  91 SW3       30.16F
ORANGE*        CLEAR     52  46  82 CALM      30.17S
LOUISA*        CLEAR     48  45  87 CALM      30.17R
BUMPASS*       FAIR      52  51  96 CALM      30.17S
FARMVILLE*     CLEAR     51  47  87 CALM      30.18S
CREWE*         FAIR      50  50 100 CALM      30.19S
FORT PICKETT*  FAIR      53  45  75 CALM      30.19S
CHASE CITY*    FAIR      52  44  75 CALM      30.20S
CLARKSVILLE*   FAIR      50  46  87 CALM      30.21R
SOUTH HILL*    CLEAR     49  49  98 CALM      30.26S
LAWRENCEVILLE* FAIR      53  47  80 CALM      30.20R
EMPORIA*       CLEAR     46  46 100 CALM      30.21S
$$

VAZ088>098-200200-
SOUTHEAST VIRGINIA

CITY           SKY/WX    TMP DP  RH WIND       PRES   REMARKS
NORFOLK        CLEAR     61  57  87 SW3       30.18F
VIRGINIA BEACH CLEAR     57  54  89 CALM      30.18S
NORFOLK NAVAL  CLEAR     63  57  81 S6        30.20S
WEST POINT*    CLEAR     53  53 100 CALM      30.19S
SALUDA*        FAIR      55  55  99 SW3       30.17S
NEWPORT NEWS   CLEAR     55  53  93 CALM      30.18F
LANGLEY AFB    CLEAR     57  58 100 SW6       30.18S
FORT EUSTIS    CLEAR     58  53  84 CALM      30.16S HAZE
WILLIAMSBURG*  CLEAR     59  57  94 SW3       30.19S
HR EXEC AP*    NOT AVBL
FRANKLIN*      CLEAR     54  53  95 CALM      30.20S
US460-WAKEFLD  CLEAR     55  54  96 CALM      30.19S
$$

VAZ020-022-025-037-045-200200-
WEST CENTRAL AND SOUTHWEST VIRGINIA

CITY           SKY/WX    TMP DP  RH WIND       PRES   REMARKS
STAUNTON*      CLEAR     54  42  63 CALM      30.21R
WAYNESBORO*    CLEAR     58  42  53 SW5       30.20S
HOT SPRINGS VA CLEAR     58  32  38 W12G17    30.29R
LYNCHBURG      CLEAR     52  45  77 SW3       30.21S
DANVILLE       CLEAR     50  47  89 CALM      30.22R
SOUTH BOSTON*  FAIR      51  44  78 CALM      30.21R
MARTINSVILLE   CLEAR     49  47  92 CALM      30.25S
ROANOKE        CLEAR     59  46  62 CALM      30.24R
BLACKSBURG     CLEAR     51  45  78 CALM      30.29S
DUBLIN*        CLEAR     55  44  66 CALM      30.28R
MARION*        CLEAR     54  39  57 SW8       30.32R
HILLSVILLE*    CLEAR     58  30  34 CALM      30.28S
RICHLANDS*     FAIR      60 -13   5 SW3       30.30S
WISE*          CLEAR     54  43  66 SW3       30.31R
ABINGDON*      CLEAR     54  43  67 CALM      30.30S
$$

MDZ021>025-VAZ099-100-200200-
SOUTHERN MARYLAND AND THE DELMARVA PENINSULA

CITY           SKY/WX    TMP DP  RH WIND       PRES   REMARKS
PATUXENT RIVER PTCLDY    53  50  89 SW5       30.16S
BAY BRIDGE APT CLEAR     61  52  72 S3        30.15S
LEONARDTOWN    NOT AVBL
DOVER          CLEAR     56  54  92 S5        30.14S
GEORGETOWN     CLEAR     55  49  80 CALM      30.17S
EASTON         NOT AVBL
CAMBRIDGE      CLEAR     55  54  94 CALM      30.16S
SALISBURY      CLEAR     51  50  96 E3        30.17R
OCEAN CITY     CLEAR     51  50  96 CALM      30.18R FOG
WALLOPS ISLAND CLEAR     59  56  89 SW7       30.18S
ACCOMACK*      CLEAR     57  56  97 S5        30.18R
$$

NCZ012>017-030>032-200200-
NORTH CENTRAL AND EASTERN NORTH CAROLINA

CITY           SKY/WX    TMP DP  RH WIND       PRES   REMARKS
ROANOKE RAPIDS FAIR      54  54 100 CALM      30.20S
RALEIGH        CLEAR     56  50  80 CALM      30.22S
ELIZABETH CITY CLEAR     62  60  93 CALM      30.20R
AHOSKIE*       CLEAR     54  54 100 CALM      30.21S
EDENTON*       CLEAR     60  56  88 CALM      30.20S
CURRITUCK*     CLEAR     60  58  94 CALM      30.20S
KILL DEVIL HLS CLEAR     64  59  86 CALM      30.18S
MANTEO         CLEAR    N/A N/A N/A CALM      30.20S
CAPE HATTERAS  CLEAR     62  60  93 N5        30.20R
TARBORO*       NOT AVBL
GOLDSBORO      CLEAR     60  55  84 CALM      30.19S
WASHINGTON     CLEAR     59  56  89 CALM      30.21R
GREENVILLE     CLEAR     57  57 100 CALM      30.22R
NEW BERN       CLEAR     61  59  93 CALM      30.21S
WILMINGTON     CLEAR     63  60  90 CALM      30.20S
$$

VAZ048-200200-
ELSEWHERE

CITY           SKY/WX    TMP DP  RH WIND       PRES   REMARKS
HARRISBURG PA  PTCLDY    62  48  60 N3        30.12R
BALTIMORE      PTCLDY    54  50  86 SW3       30.15R
ANNAPOLIS      CLEAR     59  53  80 CALM      30.15S
ANDREWS AFB    CLEAR     55  49  79 CALM      30.15S
PHILADELPHIA   CLEAR     63  48  58 SW10      30.13S
HENDERSON NC   CLEAR     53  44  71 CALM      30.22R
GREENSBORO     CLEAR     57  47  69 W3        30.23R
ROCKY MOUNT    CLEAR     54  54 100 CALM      30.21S
$$

VAZ100-200200-
MARINE

STATION/POSITION TIME  TEMP    WIND        PRES    WAVE   SWELL
                       AIR SEA DIR/SP/G            HT/PER HT/PER
                 (UTC) (F)     (DEG/KT/KT) (MB)    (FT/S) (FT/S)
BRANDYWINE LGT   0024   65     250/ 13/ 17 1021.3
CAPE MAY NJ      0024   65 66  250/ 13/ 17 1020.5
LEWES DE         0024   60 65  230/  5/  7 1021.0
15NM E FENWICK I 2350   67 67  230/ 14/ 16 1021.3    3/ 9   3/ 9
OCEAN-CITY-INLET 0024   63 67  280/  4/  5 1021.9
WACHAPREAGUE VA  0024   61 66  230/  2/  3 1021.7
THOMAS POINT MD  0100   65 68  210/  7/  8   N/A
GOOSES REEF MD   0050   68     220/  8/ 10 1020.1R
COVE POINT MD    0024   64     200/  8/  8 1021.8
SOLOMONS ISLAND  0024   64 69  200/  5/  6 1020.9
BISHOPS HEAD MD  0024   64 65  190/  6/  8 1021.6
PINEY POINT MD   0018          240/  7/  8   N/A
POTOMAC MD       0050   67     210/  8/  8 1020.9S
CAMBRIDGE MD     0024   59 67              1022.0
LEWISETTA VA     0030   61 65  210/  3/  3 1021.5R
RAPPAHANNOCK LGT 0030          170/ 10/ 12 1022.3F
STINGRAY PT      0050   67     220/  8/ 10 1022.0F
YORK RVR RNG VA  0030   68     190/  9/ 10 1022.4S
YORKTOWN VA      0030   64 70  210/  5/  5 1021.6S
JAMESTOWN VA     0050          220/  6/  6   N/A
DOMINION TERM VA 0030   68     200/  4/  5 1022.2F
KIPTOPEKE VA     0030      69  170/  6/  8   N/A
CAPE HENRY VA    0030   65     180/  6/  8   N/A
WILLOUBY STN VA  0030   67     170/  9/  9 1022.0F
S CRANEY ISL VA  0030   68     170/  5/  6 1022.0S
CAPE HENRY BUOY  0030      71                N/A     3/ 8
1ST LANDING BUOY 0050   67                 1022.0F
CAPE CHARLES BUO 0051      71                N/A     3/ 8
64NM E OF VA BCH 0050   68 69  140/  4/  6 1022.8S   3/ 9   3/ 9
DUCK PIER NC     0030   69 69  150/  6/  7 1022.0R
44100 DUCK FRF   0035      71                N/A     3/ 8
44056 DUCK FRF   0100      70                N/A     3/ 7
OREGON INLET NC  0030   67 68  100/  3/  3 1022.3S
HATTERAS NC      0030   69 70   10/  3/  4 1022.5R
DIAMOND SHLS NC  0050   74 81   10/  6/ 10 1022.1R   4/ 9   3/ 9
CAPE LOOKOUT NC  0000   71      30/  2/  2 1022.1R
$$




USA.gov is the U.S. government's official web portal to all federal, state and local government web resources and services.